GFSSE_sfc_thetae_108.txt.gz
Theta_e
343 346 348 350 350 349 349 348 348 350 350 351 351 351 351 351 351 350 350 349 349 351 349 349 350 351 349 348 348 347 347 346 345 346 346 344 344 343 343 342 342 338 342
343 346 347 349 350 349 349 348 349 350 351 351 350 350 349 349 349 349 349 348 349 349 347 347 347 347 347 345 345 344 343 343 343 343 343 343 341 342 341 341 341 338 341
344 347 347 347 349 350 350 350 350 351 352 351 350 349 349 348 348 348 348 348 348 348 345 343 344 345 344 344 343 342 341 340 339 339 338 332 335 340 340 339 341 339 339
345 346 346 346 348 349 349 349 350 351 351 350 349 348 348 347 348 348 347 346 346 346 344 345 343 342 342 342 341 341 340 339 337 336 330 331 333 339 338 337 337 337 336
343 347 346 345 346 348 349 349 349 350 350 349 348 348 348 347 347 347 345 344 345 345 343 343 342 340 340 338 339 339 338 337 335 330 325 326 328 334 335 335 333 332 332
340 344 344 343 345 347 349 349 349 349 347 347 347 347 348 348 348 346 344 344 344 344 342 341 340 340 339 338 339 336 336 333 331 326 326 330 329 334 333 332 331 330 330
338 340 343 342 344 347 349 349 348 347 346 346 346 343 341 346 345 344 343 343 342 342 342 341 340 339 337 336 334 333 332 330 325 323 323 327 328 331 331 330 328 327 327
337 338 340 343 344 345 347 347 346 344 345 344 341 339 339 341 343 342 342 342 341 340 339 339 338 336 335 333 331 331 330 329 325 323 322 323 330 330 329 328 327 327 326
337 335 336 338 341 343 342 343 342 342 341 340 338 337 339 338 338 340 340 341 340 339 338 338 336 334 333 331 329 329 328 327 322 322 323 322 331 329 329 328 327 327 326
333 333 332 331 331 330 334 337 338 339 337 337 336 335 334 332 334 338 339 339 339 338 337 336 334 332 331 329 328 327 326 326 321 320 319 324 330 329 329 328 327 326 325
329 329 330 328 326 326 327 329 334 333 334 335 335 333 331 329 333 338 337 337 337 336 336 335 333 331 328 328 328 327 325 321 321 320 320 328 329 329 328 327 325 325 325
326 326 327 326 325 325 329 326 326 328 332 334 333 332 333 332 334 335 334 335 335 334 334 333 331 329 325 320 323 324 319 320 320 320 321 329 329 328 327 326 325 324 324
327 327 327 327 326 324 325 323 324 327 327 330 330 333 334 333 333 333 332 332 331 332 328 328 326 321 317 316 316 318 318 318 319 320 324 328 328 328 327 325 324 324 323
326 327 327 327 325 323 323 322 322 325 327 327 328 330 330 330 331 332 330 329 327 326 321 320 316 315 315 316 317 317 318 317 318 320 323 326 327 327 326 325 324 323 323
326 326 326 326 323 322 322 322 323 323 324 326 326 326 328 330 330 330 328 327 324 320 317 314 314 313 313 315 318 317 317 317 318 320 320 324 326 326 326 325 325 324 322
327 326 325 325 324 323 324 323 325 327 325 325 326 326 326 330 330 328 326 322 320 319 315 313 313 311 312 314 316 317 317 317 318 318 319 320 324 326 326 325 324 324 323
327 326 325 325 325 324 325 324 326 326 325 326 325 327 326 329 329 326 323 319 319 316 312 312 314 313 314 315 315 316 317 316 317 318 317 317 320 323 324 325 325 323 323
325 324 324 328 325 325 326 327 327 325 326 327 326 329 329 329 330 325 320 318 319 317 313 314 314 315 314 314 313 315 315 316 316 317 317 317 316 318 321 324 325 325 323
324 323 322 324 323 323 328 327 328 324 326 329 327 330 330 331 329 324 320 318 318 317 314 316 316 317 314 312 313 311 314 314 315 317 316 316 315 315 315 322 323 323 324
322 322 321 321 322 323 322 327 328 324 326 329 330 329 331 331 329 325 320 320 319 319 314 318 317 316 315 312 315 312 313 315 316 315 315 316 315 314 314 315 318 318 321
320 320 319 319 319 319 317 321 324 323 325 325 328 329 330 330 329 327 322 322 320 320 315 319 319 315 310 311 309 307 308 311 313 314 315 314 313 314 313 313 315 314 317
319 319 318 320 320 319 318 318 321 322 326 326 327 329 329 328 328 328 325 323 321 319 320 319 317 312 311 310 307 305 302 305 307 309 312 314 312 314 313 313 313 314 314
317 317 318 320 322 321 318 318 316 319 322 324 324 325 327 327 327 327 326 324 324 322 321 320 317 315 312 310 310 306 301 300 302 306 306 309 311 310 312 313 313 314 314
317 317 318 320 321 321 319 318 317 314 317 320 325 325 327 326 325 326 326 326 326 324 322 321 318 315 313 310 309 311 309 307 304 301 304 306 306 310 311 312 313 314 314
315 316 318 320 320 322 321 320 319 318 318 317 321 323 325 325 325 323 323 324 325 324 322 319 317 317 314 312 310 309 308 308 307 302 300 302 303 306 307 311 312 313 314
316 316 317 319 320 320 320 320 319 318 319 319 320 320 322 324 323 321 321 322 324 323 320 319 318 317 316 315 314 311 310 308 307 306 301 302 301 304 305 306 308 311 312

GFSSE_sfc_thetae_111.txt.gz
Theta_e
341 342 348 350 350 349 348 349 349 349 350 352 353 352 352 351 351 350 350 350 351 352 351 350 352 352 349 349 348 348 346 345 345 345 345 344 343 343 343 342 342 338 343
341 344 346 349 349 349 348 349 350 350 351 352 352 351 351 350 350 350 350 350 350 351 348 350 351 348 347 347 347 346 345 344 343 343 343 343 342 341 342 341 341 339 342
342 344 345 347 349 349 349 350 350 351 351 350 350 351 350 350 350 349 349 349 350 348 347 347 348 348 346 345 344 344 343 342 341 341 339 334 336 341 341 340 341 340 339
344 344 344 346 348 349 348 349 350 351 350 349 349 349 349 349 349 349 349 347 347 348 346 347 347 346 343 343 342 341 340 339 338 336 331 332 334 339 339 339 338 337 337
343 344 344 345 346 348 348 349 350 349 349 348 348 348 348 348 348 348 347 346 346 346 344 344 344 343 342 340 339 339 338 336 334 329 324 326 330 335 337 336 335 334 334
342 344 342 343 345 347 348 349 349 348 347 346 346 347 348 348 347 347 345 345 345 343 343 343 342 341 339 338 338 337 335 333 329 323 325 330 328 335 334 333 333 332 332
338 342 342 340 344 347 349 348 348 347 346 346 346 346 345 346 344 344 343 343 343 343 344 342 341 339 339 337 337 334 332 331 323 323 323 326 328 333 333 330 329 328 328
337 338 341 342 343 345 347 346 345 345 345 344 343 344 343 341 340 340 343 342 341 341 340 339 339 338 336 334 334 332 330 329 324 323 324 325 331 330 330 329 327 327 327
335 336 337 340 342 342 342 342 342 342 342 341 339 338 339 337 337 339 339 339 341 339 339 338 337 335 333 332 332 330 329 328 322 321 323 324 332 330 329 328 327 327 326
332 332 334 335 338 340 343 340 340 339 340 338 335 334 335 335 336 337 337 338 339 338 338 337 334 332 331 331 330 328 327 326 319 320 320 325 331 329 328 327 327 326 326
329 329 329 329 330 331 333 337 338 341 334 336 334 335 333 333 334 335 336 338 338 337 336 335 333 330 329 330 329 327 325 321 321 320 322 329 329 329 328 327 326 326 325
325 325 328 326 325 325 328 328 328 333 335 335 333 334 331 329 330 332 335 336 336 336 335 334 331 328 327 325 325 324 320 320 320 321 322 329 329 329 328 326 326 325 324
327 325 326 326 324 323 325 323 322 323 331 333 332 331 330 328 330 334 334 334 332 333 330 329 327 320 319 321 318 318 318 318 317 319 323 328 329 328 327 326 325 325 323
323 326 325 326 324 323 324 322 325 325 327 331 332 330 330 328 330 329 331 330 328 327 323 323 319 315 315 318 318 317 317 317 317 318 322 327 328 327 327 326 325 324 324
323 324 325 326 324 323 322 320 322 324 325 329 329 331 331 329 328 330 331 330 325 320 320 316 313 315 314 316 316 317 316 316 317 318 318 325 326 327 326 326 325 324 323
324 325 326 326 325 322 322 320 321 321 324 326 328 329 331 330 329 330 329 327 322 321 316 316 314 313 313 315 315 316 315 316 316 316 317 320 324 326 326 326 325 324 323
324 325 325 326 323 321 322 320 322 324 324 323 325 327 328 330 329 329 328 323 320 316 312 311 311 310 312 315 314 315 316 316 316 316 316 317 320 323 324 326 325 324 323
324 324 325 327 323 321 323 322 323 325 324 324 325 325 327 328 330 327 324 321 318 313 312 312 312 311 310 314 313 314 314 315 315 315 315 315 315 317 321 324 325 325 323
325 324 323 324 323 322 322 324 325 322 324 327 327 325 325 329 327 325 322 318 316 313 312 311 311 312 311 313 314 313 312 312 314 317 315 314 315 315 315 322 323 323 324
324 323 322 323 322 321 325 327 325 322 326 326 327 325 325 328 327 324 320 317 316 312 310 312 313 312 311 313 315 312 311 312 313 314 315 316 314 314 314 315 317 317 321
321 321 321 321 320 321 321 322 322 322 325 325 327 327 327 328 326 322 319 317 315 311 310 313 313 312 309 311 309 308 307 311 312 312 312 313 313 313 313 313 313 313 315
320 320 320 321 319 318 319 321 323 323 325 326 327 328 328 328 326 323 319 317 315 312 311 314 315 310 310 311 308 306 301 304 309 311 312 313 311 312 312 312 312 313 312
318 318 319 319 320 317 317 317 319 322 324 323 324 326 328 328 327 325 320 319 316 315 312 316 316 315 311 308 311 306 301 300 303 305 309 311 311 310 312 312 312 313 313
318 318 318 319 318 317 317 316 318 320 320 322 323 326 327 328 328 327 322 320 317 317 314 316 318 316 312 309 308 309 308 306 302 300 304 306 311 311 310 310 312 312 313
317 317 317 318 319 320 318 317 315 313 317 321 324 323 325 326 327 327 325 322 320 319 319 317 318 314 314 312 310 308 308 308 306 303 300 302 304 307 311 312 312 312 313
315 315 316 317 319 321 320 316 315 313 314 315 319 321 323 325 325 326 326 324 323 322 321 320 318 315 314 312 312 310 309 308 306 305 303 302 303 305 307 309 309 311 312

GFSSE_sfc_thetae_114.txt.gz
Theta_e
338 341 348 349 347 347 349 349 349 350 352 352 353 352 352 352 351 351 351 352 351 352 353 352 352 352 351 349 349 348 346 346 345 346 346 345 344 343 344 343 343 340 345
338 340 346 346 347 346 349 349 348 349 352 353 352 352 351 351 351 351 351 351 352 352 350 352 352 351 350 348 347 347 345 344 344 344 345 345 344 342 342 342 342 341 343
339 342 345 347 348 348 349 350 349 349 351 353 352 351 351 351 351 351 351 351 351 350 348 349 351 349 348 346 346 345 344 343 342 342 342 337 338 342 341 342 342 342 341
341 342 344 346 347 348 349 350 351 350 349 349 350 351 351 350 350 351 350 349 349 350 348 349 349 348 346 345 343 342 342 341 339 337 334 334 336 341 340 339 340 340 340
341 342 344 345 346 347 348 349 350 349 347 347 348 351 350 350 349 349 347 347 348 349 348 348 348 345 343 341 340 339 338 337 335 330 328 330 333 338 339 338 337 336 338
340 341 341 343 345 347 348 349 349 349 348 347 348 349 350 350 349 348 346 346 346 347 346 348 346 343 340 339 337 337 335 333 329 326 328 332 330 336 336 334 335 335 335
339 340 340 341 344 347 349 348 347 347 346 346 346 344 346 345 346 345 344 343 344 343 344 344 343 340 339 337 336 334 332 330 324 324 324 326 330 334 334 332 332 331 331
337 338 339 342 344 345 346 347 346 345 344 344 343 343 343 341 341 341 342 341 342 342 341 341 340 339 337 336 334 332 330 329 324 323 324 325 334 332 331 330 329 327 329
334 335 336 339 342 343 342 342 342 342 342 342 342 340 339 339 338 339 339 340 340 339 340 339 338 335 336 334 332 330 328 327 320 322 325 326 333 332 330 329 328 327 327
330 332 337 339 341 341 342 340 339 340 340 340 339 339 336 335 335 338 337 338 339 339 339 338 335 333 334 332 330 328 328 326 320 321 322 327 332 330 329 328 328 325 326
328 329 332 337 338 340 341 341 340 340 339 337 337 336 332 331 332 335 335 337 338 337 337 336 333 331 331 330 329 328 324 320 321 321 324 330 330 329 328 327 327 326 325
325 326 329 332 335 336 337 337 341 341 340 336 334 334 333 332 332 333 334 335 336 336 335 334 331 330 329 326 326 325 320 320 321 321 324 330 331 330 328 327 325 325 325
328 328 327 328 328 328 331 334 332 333 337 335 331 332 333 331 332 330 332 333 333 334 331 329 326 324 323 323 319 319 319 320 320 320 325 329 331 328 327 326 326 325 324
323 326 326 326 325 323 324 324 326 327 331 335 333 331 329 328 328 330 331 332 332 330 328 324 319 317 320 319 318 318 318 318 318 319 324 327 328 327 327 326 326 325 324
321 323 325 326 325 323 322 321 325 324 327 332 332 332 330 327 327 330 330 330 329 329 327 319 315 315 315 316 318 318 317 318 318 319 321 325 327 328 327 327 326 325 324
322 322 324 326 325 323 322 321 324 325 326 328 331 330 330 328 328 328 328 328 326 326 324 318 314 313 315 316 315 316 316 317 317 317 319 322 324 326 327 326 326 325 324
322 322 324 325 324 323 322 320 321 322 323 325 328 331 330 329 328 328 329 327 324 322 319 315 311 311 314 314 314 314 315 316 317 317 318 319 321 323 325 327 326 324 324
320 322 324 327 323 322 322 320 321 323 322 323 326 328 330 330 329 328 328 325 322 319 317 315 312 310 312 313 312 313 314 315 316 316 316 317 317 319 322 324 325 325 324
318 322 323 325 323 321 320 320 321 323 323 323 324 325 327 329 329 328 328 324 318 316 316 314 311 312 312 312 313 312 312 314 315 316 315 316 316 317 317 322 323 323 324
320 322 323 324 323 321 320 324 324 322 322 324 326 325 325 326 327 328 325 319 318 314 313 314 311 311 311 313 314 311 311 312 313 314 315 316 316 316 316 317 319 319 322
321 321 322 322 321 322 323 323 323 321 322 325 325 326 325 325 326 325 320 318 316 313 312 312 312 311 309 311 309 308 308 312 311 312 313 314 315 315 314 315 316 316 317
320 320 321 321 321 323 324 324 323 322 324 325 325 325 325 326 324 322 320 318 315 312 310 311 312 309 309 312 308 306 304 307 310 311 312 313 313 314 314 314 314 315 315
317 319 320 320 322 322 322 323 323 322 323 323 324 323 325 325 323 321 319 317 315 311 310 311 312 312 309 308 313 308 302 303 305 306 309 312 312 312 314 314 314 314 314
317 316 319 320 321 318 319 321 321 320 319 322 322 325 324 326 324 321 319 318 315 311 310 311 313 313 311 308 308 308 308 306 304 301 306 309 311 311 312 312 314 314 314
316 315 318 320 320 318 318 319 320 319 320 322 324 323 325 326 325 322 320 318 315 314 311 312 314 314 312 312 309 308 308 308 306 303 301 304 305 310 313 313 313 313 314
315 315 318 318 319 318 317 314 315 314 318 321 322 322 323 325 326 325 321 319 317 315 313 313 316 314 313 314 311 309 308 307 307 305 303 303 304 306 308 311 312 313 313

GFSSE_sfc_thetae_120.txt.gz
Theta_e
341 349 349 349 350 351 351 352 352 353 352 353 353 353 354 354 354 354 353 353 353 354 352 352 352 351 349 349 351 350 349 348 348 347 348 347 348 346 346 346 346 344 346
341 349 346 348 348 350 351 351 352 353 353 354 352 353 353 353 353 353 353 353 353 353 352 351 351 351 350 349 349 348 347 347 346 346 347 346 346 344 344 345 345 345 345
342 349 350 346 348 350 350 351 353 353 354 354 353 352 353 353 353 353 353 352 352 352 352 351 350 350 349 349 347 347 346 345 344 344 345 342 341 344 344 345 344 345 344
345 349 350 345 347 349 351 350 351 353 354 353 351 353 353 352 352 352 352 350 350 350 350 350 350 349 348 347 346 345 344 343 342 343 340 340 341 342 343 342 343 343 343
345 347 349 344 345 346 350 349 349 351 352 351 350 352 352 352 352 352 349 348 349 350 351 349 348 347 346 344 343 343 341 341 340 339 337 338 340 341 342 341 341 341 341
344 345 344 342 345 346 350 349 349 349 350 350 350 351 352 350 350 344 343 342 344 347 347 347 345 345 343 341 340 340 339 339 337 336 336 341 338 340 341 340 340 340 339
345 347 351 341 344 347 350 349 347 348 348 349 349 349 350 348 343 338 341 340 340 342 347 346 345 342 341 339 338 337 337 337 337 335 336 339 338 338 338 337 338 338 338
347 350 351 344 343 345 347 348 345 345 345 346 348 348 347 344 342 342 341 341 342 341 344 343 342 341 339 338 336 334 334 335 335 334 334 337 336 336 335 334 335 336 335
351 351 352 349 347 342 343 343 342 342 343 344 345 345 342 341 341 340 341 343 342 342 342 342 340 338 338 336 334 332 332 334 335 332 332 335 336 335 333 333 332 332 332
350 352 351 350 348 350 348 341 340 340 340 341 342 340 339 339 338 340 340 341 341 341 341 340 338 337 335 333 331 330 330 332 332 332 331 334 334 332 331 331 331 331 330
346 350 352 351 348 349 348 347 342 341 340 340 341 338 337 345 344 342 339 338 340 340 339 339 336 334 332 331 330 329 330 331 332 331 332 332 334 331 330 330 329 329 328
342 346 350 351 349 348 347 347 348 348 350 350 350 348 344 345 344 340 338 337 339 338 338 337 335 332 332 335 333 329 332 332 331 330 331 332 333 332 330 329 328 328 328
339 343 347 348 349 348 345 346 347 346 349 347 348 349 347 344 344 340 338 339 340 338 335 337 335 336 338 334 332 332 332 332 330 329 329 330 332 331 330 328 328 327 327
335 340 346 347 345 346 344 344 345 349 347 349 347 349 347 343 340 338 337 335 339 339 338 337 334 335 334 332 332 332 333 330 329 327 328 329 330 331 330 329 328 327 326
331 337 341 346 345 343 342 343 344 345 348 348 347 347 347 342 339 338 336 338 337 340 339 335 333 332 333 332 331 333 331 330 329 327 328 327 328 330 329 329 327 326 325
327 332 338 343 345 344 340 341 341 343 345 345 344 344 346 342 338 334 333 340 334 336 336 333 333 332 333 333 332 332 331 328 327 328 328 328 326 328 329 328 328 326 325
320 322 331 336 343 345 344 339 338 340 341 343 341 343 343 340 339 336 332 334 333 332 332 331 332 331 330 331 331 331 330 328 326 327 326 326 327 325 326 329 328 326 325
319 320 323 328 336 342 344 345 340 339 337 339 342 339 341 338 337 334 333 331 334 331 329 327 329 329 329 329 329 329 328 327 328 327 327 327 326 326 324 326 327 327 327
318 319 322 326 332 338 342 343 343 342 337 337 341 340 337 336 336 332 332 330 332 328 326 325 327 330 328 328 328 328 326 326 327 325 325 327 327 326 325 324 325 325 326
322 321 322 322 330 336 339 341 339 334 332 334 336 337 339 336 332 332 330 329 329 326 324 324 324 329 329 328 325 323 326 327 327 326 324 325 326 326 326 326 326 324 323
325 325 327 327 331 335 335 334 330 328 327 329 332 333 331 334 332 330 329 328 326 324 323 325 324 328 326 328 325 323 323 327 327 324 325 325 324 325 326 326 325 324 324
326 327 328 330 333 334 333 332 332 330 330 330 329 331 330 331 333 330 329 327 325 323 322 323 324 325 326 328 322 321 314 318 323 324 324 324 325 325 324 325 325 325 324
324 328 328 330 332 333 334 331 333 331 331 326 327 327 329 333 334 331 329 326 324 323 320 321 323 322 323 326 327 321 315 313 318 323 324 324 325 324 325 325 326 326 326
325 329 330 330 331 329 331 330 331 329 328 330 330 330 332 333 332 329 327 326 323 323 321 320 322 324 328 323 326 323 324 322 316 314 321 323 325 324 326 325 325 323 326
324 329 330 330 328 328 330 333 333 332 331 332 328 329 330 327 328 329 326 322 323 322 322 321 322 328 328 325 325 322 323 324 323 318 314 318 323 324 325 325 324 324 327
322 325 326 326 326 327 328 332 333 333 330 330 328 329 330 324 323 324 321 320 319 320 320 320 321 326 327 328 325 325 322 320 319 319 317 318 318 322 324 324 325 326 327

GFSSE_sfc_thetae_123.txt.gz
Theta_e
336 349 349 351 351 352 352 352 354 353 353 353 353 354 354 354 355 354 354 354 354 354 353 352 351 350 350 350 351 350 350 348 348 349 349 349 347 346 346 345 345 343 346
338 347 347 349 350 351 351 352 353 353 353 354 353 354 354 354 354 354 354 354 354 353 352 351 351 351 352 350 349 348 348 347 346 346 347 347 347 345 346 345 345 345 347
338 347 350 348 350 350 351 352 353 354 354 354 354 353 353 353 354 354 354 352 351 352 351 351 350 350 350 349 348 348 347 346 345 344 345 341 342 345 345 345 345 346 345
339 347 349 346 349 350 351 352 353 354 354 353 353 353 353 353 354 353 353 351 348 350 351 350 350 348 348 347 346 345 345 344 344 344 339 338 338 343 344 343 344 344 344
339 343 350 345 346 349 350 351 352 353 352 352 352 352 352 353 353 352 348 346 347 348 350 349 348 348 347 344 344 344 343 342 343 342 337 338 339 342 343 343 342 342 342
338 341 343 343 345 348 350 350 350 352 350 350 350 351 352 353 352 347 341 341 340 341 344 347 346 345 343 342 341 341 340 340 339 340 339 340 338 341 341 341 341 341 340
339 344 351 342 344 347 350 350 349 349 349 349 350 350 350 351 349 344 336 335 338 334 340 343 345 344 342 340 340 339 338 338 339 334 335 338 339 340 340 339 339 339 338
342 346 353 344 344 346 348 348 346 346 347 348 348 349 349 348 345 336 340 340 340 341 341 343 342 342 340 339 338 337 336 335 336 333 336 338 338 338 339 338 336 336 336
349 351 352 351 348 344 344 344 343 343 344 346 345 345 345 342 339 340 341 341 341 341 342 342 340 339 339 337 336 334 333 335 335 334 336 336 338 337 335 335 334 333 333
350 354 352 352 351 350 350 342 341 341 341 343 344 342 340 339 338 340 340 340 342 343 342 341 338 337 336 334 333 332 331 333 335 330 334 335 337 335 334 334 333 332 330
347 352 353 352 351 352 351 348 342 341 340 341 343 339 337 346 343 342 339 340 342 341 341 339 337 335 333 332 332 331 331 330 331 329 334 333 335 333 332 332 331 330 329
341 347 351 353 352 352 347 350 349 349 348 348 349 350 349 349 346 342 339 337 340 339 339 337 335 332 333 335 332 331 332 330 329 330 332 333 334 331 330 330 329 329 328
336 343 347 351 353 351 348 348 347 347 348 348 349 350 350 345 347 344 345 339 342 338 340 338 335 338 338 336 334 333 331 331 329 331 330 332 333 332 331 329 329 328 328
328 338 345 349 351 351 349 346 347 347 348 348 347 353 350 347 347 342 344 342 338 339 340 337 336 334 337 335 332 330 333 329 328 330 329 330 332 331 330 330 328 328 328
327 333 342 348 350 349 350 345 347 348 347 348 349 352 350 346 343 343 342 337 337 341 337 337 336 336 334 331 330 331 331 330 329 328 327 328 329 331 330 330 328 328 327
327 331 338 343 348 348 347 345 345 350 348 348 349 348 352 347 345 341 341 342 339 340 338 334 336 330 331 331 331 330 330 329 327 328 327 328 327 329 330 330 328 327 326
324 326 331 337 343 348 346 343 343 346 348 348 348 352 350 348 345 342 339 340 338 335 333 332 336 330 328 330 330 330 329 328 326 327 327 328 326 325 327 329 329 327 326
321 322 323 323 337 344 347 344 341 343 345 347 347 346 348 349 345 343 339 338 337 333 331 329 329 328 328 329 330 327 327 326 325 327 326 326 326 326 325 327 328 328 327
319 319 322 326 331 340 344 345 345 340 340 342 346 345 341 344 344 341 338 335 336 335 330 328 327 327 328 327 329 327 328 325 325 324 325 326 327 325 325 325 325 325 327
323 325 327 326 330 334 340 344 345 343 341 338 341 344 344 344 342 340 336 334 336 331 328 326 325 327 329 329 326 324 325 326 326 326 324 324 325 327 325 325 324 323 324
324 326 326 327 331 328 330 335 340 340 337 334 337 344 342 340 341 336 335 332 330 327 326 326 324 323 326 328 325 321 324 326 327 325 324 323 324 324 326 325 324 323 323
324 326 330 329 330 330 330 335 339 339 330 330 334 338 339 339 336 336 334 329 330 327 324 324 323 321 322 328 323 318 314 318 322 324 324 324 327 322 323 324 324 324 324
323 328 330 329 331 333 334 336 334 332 330 328 330 331 336 335 336 336 333 329 327 327 323 323 323 321 319 324 326 321 314 313 317 321 324 324 326 323 324 323 324 324 324
323 329 332 332 332 333 336 335 331 327 326 327 329 330 334 334 334 334 334 330 326 326 324 323 324 323 321 320 325 326 326 322 316 313 320 322 324 323 326 324 323 324 325
323 325 329 332 332 333 333 334 330 329 332 333 334 331 331 333 334 335 334 331 326 325 324 324 323 322 323 323 324 323 324 325 324 318 314 317 320 323 324 325 326 326 326
324 326 326 328 328 328 330 331 330 330 332 332 331 330 331 333 333 333 332 329 328 324 323 323 324 322 322 324 325 326 324 321 319 321 318 319 318 322 324 325 326 325 326

GFSSE_sfc_thetae_126.txt.gz
Theta_e
338 347 350 352 352 353 352 354 352 352 353 353 354 355 355 355 355 355 355 354 354 355 354 352 353 352 352 351 351 350 350 349 349 350 350 350 348 347 348 346 345 342 347
342 347 348 350 352 352 352 353 353 353 353 353 354 354 354 354 354 354 354 354 354 353 352 351 351 350 350 349 349 348 347 346 346 346 347 348 348 348 346 345 345 344 347
341 346 347 348 351 351 352 353 354 353 354 354 354 354 354 354 354 354 354 353 352 352 351 351 351 351 349 348 348 347 346 346 345 345 345 340 340 345 344 345 345 346 346
345 346 346 347 349 351 352 352 354 354 354 353 354 353 353 353 354 354 352 350 347 345 348 351 351 349 348 347 346 346 345 345 344 344 337 338 340 344 345 345 344 344 344
342 345 347 346 347 350 351 352 353 353 352 352 352 353 353 353 352 353 349 346 339 334 335 343 347 347 345 344 344 343 343 343 340 341 336 335 337 342 344 343 343 343 342
337 348 342 343 346 349 350 351 352 352 351 351 350 352 353 353 351 349 345 343 338 336 339 342 341 344 343 342 342 341 341 339 336 335 335 339 336 342 343 342 342 341 340
340 348 345 342 345 349 350 350 350 350 348 349 349 350 351 351 350 343 343 341 336 335 335 338 341 341 342 341 340 340 339 338 336 336 335 335 337 341 342 341 340 340 339
349 350 346 344 344 347 348 348 346 347 347 347 347 349 349 348 345 338 338 340 337 336 339 341 342 342 340 340 339 337 336 336 335 335 335 334 339 340 340 339 337 337 336
351 352 348 346 345 345 345 344 343 344 344 345 346 346 346 343 339 338 339 338 338 340 341 342 341 339 339 339 337 335 333 336 332 335 334 334 339 339 338 337 335 334 334
353 353 349 348 346 347 346 342 341 341 342 343 345 343 341 339 337 337 340 340 341 341 341 342 339 338 337 335 335 333 332 333 329 332 332 333 338 337 336 335 334 333 332
350 352 352 349 347 348 347 346 341 341 341 342 344 341 337 343 337 340 339 338 341 340 341 338 336 335 334 332 331 332 331 329 329 332 331 334 337 337 336 334 332 331 331
343 350 352 350 348 349 346 347 346 345 344 345 346 344 346 345 342 339 338 337 340 340 339 337 335 333 333 332 329 330 328 328 330 329 330 334 336 335 335 333 331 330 330
341 345 349 351 350 349 344 348 345 346 345 345 346 347 346 345 343 340 340 337 339 337 337 336 332 333 336 333 330 329 329 330 328 327 330 332 333 333 333 331 330 329 329
335 343 347 350 350 348 347 345 345 345 345 344 344 346 345 344 342 340 337 338 337 336 336 335 332 333 334 333 331 330 327 328 327 326 328 330 332 332 330 330 330 329 329
326 338 344 348 349 347 348 344 343 344 344 344 345 345 346 343 340 339 338 337 336 336 335 333 333 332 332 333 331 326 327 327 326 325 326 328 330 331 330 330 329 330 329
325 331 345 345 348 348 346 345 342 344 345 345 345 345 346 344 341 339 338 337 335 335 335 334 332 331 330 330 326 326 326 325 325 324 325 325 327 329 330 330 329 328 328
323 330 339 344 348 347 346 347 343 342 346 343 343 347 345 346 343 339 338 336 335 334 334 333 330 330 328 329 327 326 326 325 323 324 324 324 324 326 328 330 330 328 327
323 325 333 337 341 347 345 344 341 341 343 345 344 345 346 346 343 340 337 336 336 333 331 329 328 326 326 326 326 324 326 323 322 323 324 324 323 324 325 327 328 328 328
321 323 325 328 336 339 343 343 341 340 340 342 345 344 344 345 343 340 337 336 335 332 329 327 327 326 324 325 326 325 323 320 320 324 323 322 322 322 323 325 325 325 326
323 323 324 325 326 330 339 343 342 340 339 340 340 344 342 342 343 340 337 336 334 330 328 327 326 326 325 325 326 323 321 320 319 319 321 322 321 322 322 322 321 320 323
324 325 326 327 328 327 330 333 336 337 338 338 338 339 342 339 340 340 336 334 333 330 328 327 326 324 323 325 322 319 321 321 321 319 322 320 320 321 322 321 320 319 321
323 326 326 328 329 330 325 325 332 336 341 338 337 337 338 340 339 338 334 332 332 329 327 326 325 322 322 323 319 317 311 316 320 320 318 318 318 320 321 321 320 319 319
323 328 328 330 330 330 329 327 332 335 333 329 331 333 335 337 337 336 335 331 330 328 326 325 324 322 318 321 323 316 310 308 314 318 316 317 317 315 320 321 320 320 319
323 326 329 330 332 331 333 330 331 329 326 328 329 330 331 334 333 334 333 330 329 328 325 325 325 323 320 318 322 321 318 316 311 309 316 316 320 317 317 317 318 319 319
324 325 327 329 330 332 333 332 333 329 329 329 328 327 329 330 331 332 332 330 328 328 325 325 324 323 322 319 320 319 318 318 316 312 310 313 318 316 318 317 318 318 321
324 325 327 326 325 328 328 328 332 330 328 326 327 326 327 328 330 330 330 331 328 327 325 324 324 324 322 321 321 321 319 316 314 313 311 312 311 315 316 318 320 320 320

GFSSE_sfc_thetae_129.txt.gz
Theta_e
340 346 349 351 352 352 351 351 350 351 352 353 354 354 355 354 354 354 354 354 355 355 354 353 354 352 352 352 352 351 351 350 349 350 350 350 348 348 348 348 346 344 347
342 347 347 350 351 351 352 351 351 351 353 354 354 353 353 354 354 354 354 354 352 353 353 351 351 350 350 350 349 349 348 347 346 346 347 349 348 348 346 345 346 345 346
342 347 348 348 350 350 352 353 353 353 354 354 354 353 353 354 354 353 353 352 350 350 349 349 349 350 349 349 348 347 347 345 344 344 343 339 340 347 345 344 346 347 346
342 344 345 347 349 350 351 352 352 354 354 353 353 353 353 354 353 353 351 343 343 345 347 347 347 347 346 347 346 346 346 344 343 342 338 337 339 344 345 345 345 345 345
340 344 345 345 347 349 350 351 352 352 352 352 352 353 353 353 353 352 348 344 341 342 345 344 343 345 345 344 344 343 344 343 341 338 335 336 338 343 344 343 343 344 342
341 343 342 343 345 348 350 351 352 351 350 349 350 352 353 353 353 350 344 344 342 340 345 344 342 343 342 342 342 342 340 339 337 334 336 340 338 343 343 342 341 341 341
342 341 341 341 345 348 350 351 350 350 349 348 349 351 351 351 350 347 344 341 341 340 344 342 342 342 341 341 341 340 336 337 337 336 333 334 338 343 343 341 340 340 340
341 340 341 343 344 346 347 348 347 346 346 346 347 348 349 349 345 345 342 339 339 341 341 341 341 341 340 340 340 337 334 336 338 337 335 335 341 341 341 339 338 338 338
343 340 340 340 344 344 343 343 343 344 343 344 344 346 345 343 340 339 341 339 338 338 340 340 340 340 340 339 338 335 330 334 332 334 334 335 341 341 339 338 337 335 335
342 340 339 338 339 340 340 341 341 341 341 342 344 343 341 339 336 337 338 338 338 339 341 341 340 339 339 337 335 333 329 331 330 331 332 335 340 340 338 336 335 335 333
344 341 340 339 339 339 340 341 341 341 340 341 343 341 337 338 335 337 337 338 340 339 340 340 338 336 335 334 333 332 329 329 330 331 332 336 338 338 337 335 334 333 333
340 342 341 340 340 340 344 341 337 341 340 342 344 344 340 337 334 335 336 336 338 339 339 338 336 334 333 332 332 331 326 327 329 329 331 335 338 338 336 334 332 332 331
341 344 342 342 341 341 341 340 340 340 340 340 341 343 344 341 337 335 334 334 335 337 337 336 333 331 332 331 330 328 326 327 327 329 331 333 336 337 336 334 332 331 331
336 342 344 344 342 342 339 340 340 340 339 340 341 342 341 340 338 335 334 334 335 335 333 333 330 330 332 332 330 328 326 325 324 327 329 330 333 335 335 334 331 331 329
334 340 343 344 343 343 340 340 340 340 340 340 340 342 342 340 338 336 334 335 335 334 333 330 329 330 332 331 330 328 326 324 323 326 326 327 330 332 332 332 330 330 329
316 336 342 345 344 342 341 339 339 338 339 340 339 340 342 340 337 336 333 333 333 333 333 332 331 330 330 330 330 328 323 324 324 324 325 326 327 329 330 330 330 330 329
313 322 339 343 345 342 341 339 338 338 338 339 340 339 341 341 337 335 334 332 332 332 331 331 330 330 328 329 328 328 322 324 324 324 323 323 324 325 327 329 330 329 328
312 317 339 345 344 343 341 341 339 338 339 339 338 339 341 341 339 335 334 333 332 331 331 329 327 325 326 326 326 325 322 322 322 322 323 323 321 323 325 327 328 329 329
311 314 322 333 341 341 340 340 339 337 338 338 341 340 340 342 339 336 334 332 331 331 329 327 325 325 323 324 325 326 324 321 321 323 321 321 320 321 322 325 325 325 327
312 313 314 316 326 334 339 338 336 334 335 335 335 341 340 341 338 336 333 333 331 328 328 327 325 325 324 324 326 324 323 320 322 321 320 322 320 321 321 321 321 321 324
312 314 316 317 316 320 327 334 333 334 333 334 336 336 340 340 339 335 333 333 330 328 327 326 325 324 323 324 322 320 321 319 318 321 320 320 319 320 320 320 320 318 320
314 319 320 321 321 321 316 323 331 336 335 336 336 334 335 338 338 336 334 333 332 328 327 325 324 323 321 324 320 318 313 316 316 318 319 319 318 320 320 320 319 318 318
317 320 321 322 324 324 322 316 323 327 329 330 334 333 334 335 337 337 334 333 331 330 327 326 325 323 320 322 322 316 310 309 313 316 316 318 318 317 319 319 319 318 317
315 319 321 322 322 325 326 320 324 323 322 326 331 334 334 334 335 336 334 332 331 329 327 326 326 323 323 319 322 322 317 316 311 310 314 315 318 317 317 317 317 317 317
316 316 318 321 322 323 325 325 324 323 323 324 325 328 331 331 334 334 333 330 330 329 328 327 325 324 322 321 321 320 317 316 315 312 308 312 317 316 317 317 317 315 317
316 316 316 316 319 321 323 323 322 324 323 324 324 326 327 329 330 332 331 329 328 327 326 326 325 324 323 321 322 322 318 314 313 312 310 310 311 314 316 315 315 314 310

GFSSE_sfc_thetae_132.txt.gz
Theta_e
340 345 349 352 351 350 350 350 350 350 352 353 353 354 354 354 354 355 355 354 354 355 353 352 352 350 351 350 350 350 348 347 348 350 350 350 350 349 348 348 346 343 347
341 346 347 351 351 350 350 350 350 351 353 353 353 353 353 353 353 354 353 353 353 353 351 351 351 353 351 350 349 347 348 346 346 346 348 349 348 347 347 347 346 344 346
342 346 347 347 350 351 351 351 352 353 353 353 353 353 353 353 353 353 352 351 353 353 351 350 350 350 349 349 347 347 346 344 343 344 345 341 342 346 346 347 346 346 346
344 345 345 346 348 351 351 351 352 353 353 353 353 353 353 353 353 352 348 348 349 351 350 348 349 349 349 347 346 345 344 343 341 341 337 338 341 345 345 345 345 344 344
342 344 345 345 346 349 350 351 351 352 351 352 352 353 353 353 352 350 346 346 348 349 347 348 348 349 346 344 343 343 343 342 340 337 334 336 339 343 344 344 343 343 342
339 341 342 343 345 348 349 351 351 350 349 349 350 352 353 353 352 349 344 344 347 347 346 345 348 346 343 342 341 341 340 338 336 332 335 339 337 344 344 342 341 341 340
338 340 342 341 345 347 349 350 349 348 348 348 349 350 351 352 350 346 344 343 343 346 346 345 343 343 342 341 340 339 337 337 336 334 332 333 337 343 342 341 340 340 339
336 339 341 343 344 346 348 347 346 346 346 346 347 348 350 350 347 344 341 341 341 344 344 342 341 340 341 340 339 336 334 336 335 336 333 334 341 341 341 340 339 339 338
336 337 339 341 343 343 343 343 343 343 344 344 345 345 346 344 343 342 339 340 341 340 342 341 340 339 340 339 337 335 331 334 334 335 336 336 341 341 340 338 338 337 336
336 336 337 339 341 341 342 341 341 340 341 342 343 343 340 339 340 340 338 338 337 340 339 340 339 338 338 336 335 332 330 333 330 331 333 334 340 340 339 337 336 335 334
335 335 335 337 338 338 338 342 341 340 340 340 341 341 337 337 335 337 336 337 337 339 339 339 338 337 335 335 333 331 330 328 330 331 330 336 340 338 338 336 334 333 333
334 333 335 335 336 338 341 338 340 340 342 343 342 341 340 335 332 333 334 335 338 338 338 338 337 335 334 332 332 331 327 328 329 330 330 336 339 338 337 335 333 333 333
337 337 336 335 336 337 339 339 339 339 338 339 340 342 340 336 333 332 332 334 334 336 335 335 332 330 330 330 331 329 328 328 328 329 332 334 337 338 336 334 333 333 332
337 338 338 337 337 337 339 338 338 339 339 338 339 342 341 338 333 331 331 331 331 335 334 333 332 327 328 330 330 327 326 326 326 328 330 332 335 337 335 334 333 332 331
336 339 339 339 337 338 337 338 337 337 337 338 339 340 340 341 337 333 331 331 332 334 331 331 329 327 327 328 329 326 324 325 325 327 327 329 331 335 335 333 332 332 330
335 339 341 340 340 340 338 338 337 337 337 337 338 340 341 340 339 333 331 331 332 333 332 331 328 328 329 330 328 327 325 324 325 323 323 327 328 331 333 332 332 330 330
322 336 340 341 341 341 339 339 338 337 338 337 338 338 340 340 337 335 332 332 332 332 331 328 327 328 329 329 328 328 324 323 323 323 323 324 325 326 328 330 331 330 329
309 325 339 344 341 340 341 339 339 338 338 338 338 338 340 339 337 334 332 331 331 331 330 329 327 326 326 325 325 325 324 323 323 323 323 322 322 324 325 327 329 330 329
308 316 335 341 341 340 340 338 337 336 337 337 338 338 338 339 337 335 334 332 330 330 329 329 325 326 324 324 324 322 323 321 321 322 321 320 319 320 321 325 325 326 328
309 314 330 339 341 341 338 338 335 333 335 334 337 338 338 340 338 336 334 332 331 329 329 327 324 325 324 324 325 322 323 320 321 321 320 321 319 321 320 321 322 322 324
309 311 313 323 331 332 331 332 330 331 331 332 332 337 336 340 339 336 333 331 331 329 328 326 323 321 321 323 322 322 321 321 319 319 320 319 319 320 319 320 318 318 322
312 317 319 318 317 320 323 330 331 332 331 334 334 332 335 337 337 334 332 330 330 329 327 326 324 322 320 324 319 319 314 316 317 319 319 319 317 320 320 320 319 317 317
314 318 320 321 322 322 320 316 325 328 329 330 330 331 332 334 336 334 332 331 329 329 326 326 325 323 320 323 322 316 311 310 313 316 317 317 316 317 318 319 318 317 317
314 317 319 320 320 324 323 316 321 325 328 331 333 333 332 331 332 334 333 332 331 329 327 326 326 325 323 319 322 321 315 315 309 308 314 316 316 316 317 317 317 317 317
313 315 316 318 318 319 322 323 322 320 320 322 327 331 332 331 334 334 333 332 331 330 329 327 326 324 324 321 321 320 318 314 316 311 309 310 314 316 317 317 317 316 316
312 312 314 317 319 320 321 320 320 322 323 321 323 328 328 327 332 334 333 333 332 330 328 327 326 325 323 322 322 322 319 315 313 312 311 311 311 313 316 316 315 314 314

GFSSE_sfc_thetae_135.txt.gz
Theta_e
336 342 349 351 351 350 350 349 349 350 351 353 353 354 354 354 354 354 354 354 354 355 352 351 352 351 350 350 350 347 345 344 344 346 349 349 349 350 348 348 346 343 346
339 344 348 350 350 350 350 350 350 351 352 353 353 353 353 353 353 354 354 353 353 354 351 351 352 352 350 349 349 348 346 345 345 345 346 347 347 347 347 346 346 344 346
341 345 348 348 350 350 351 351 351 353 353 353 353 353 353 353 353 353 353 352 353 353 350 350 351 350 350 350 348 347 346 346 345 346 345 342 342 346 346 346 346 346 345
342 344 346 347 349 350 350 350 351 352 353 352 352 353 353 353 353 352 351 351 352 352 351 350 350 349 349 347 346 345 344 343 341 341 339 339 341 345 346 345 344 344 343
341 344 344 345 347 349 349 350 351 351 351 351 351 353 353 353 352 349 348 347 350 351 351 349 349 348 346 344 344 343 342 341 339 338 334 337 339 343 345 344 343 342 341
341 342 342 343 346 348 349 350 351 350 349 349 350 352 352 352 350 347 346 347 349 349 350 350 348 346 343 342 342 340 340 339 336 333 335 340 336 344 344 342 342 341 340
338 340 342 341 344 348 349 350 349 348 347 348 349 350 351 351 348 345 345 346 347 347 347 347 346 343 341 340 340 338 337 336 334 333 333 333 337 343 343 341 340 340 340
335 338 340 343 344 345 347 347 346 346 346 346 347 349 350 349 346 344 343 342 344 345 344 343 343 342 340 340 337 336 335 336 335 333 333 331 340 341 340 340 339 339 338
334 337 339 340 343 343 342 343 343 343 343 344 345 345 346 344 342 342 342 341 342 343 342 341 340 340 339 339 336 333 333 334 332 334 335 334 341 341 341 339 338 337 337
332 333 336 337 339 340 341 340 340 341 341 341 343 342 341 340 340 340 339 340 340 342 341 340 338 338 338 336 334 332 331 333 330 332 333 334 338 340 340 338 337 336 335
331 331 333 336 335 336 338 341 340 341 340 340 341 340 337 340 339 337 335 336 338 338 339 339 338 336 335 334 333 331 331 330 330 330 329 334 338 339 338 337 336 335 335
329 329 332 335 337 336 340 342 342 340 343 342 342 341 342 335 334 336 334 335 336 337 337 337 337 335 334 331 330 331 329 330 330 329 330 334 338 339 339 336 334 334 334
331 332 332 333 335 337 339 340 340 340 343 341 338 340 341 333 331 330 329 330 331 336 332 333 332 330 330 328 329 327 327 330 328 329 331 334 337 338 338 336 334 334 333
331 332 333 332 334 335 337 338 338 339 339 340 338 339 339 336 330 329 329 329 329 331 331 332 327 326 327 328 328 325 328 329 328 327 330 331 335 337 337 336 334 333 332
331 333 333 333 333 335 336 336 336 338 338 339 335 339 339 338 334 330 328 329 329 330 329 331 330 326 326 326 326 325 326 327 327 327 330 329 330 336 336 334 334 333 331
331 334 335 334 333 335 335 335 335 336 337 337 338 338 338 339 337 333 328 328 329 332 330 329 328 324 326 328 326 326 325 325 326 325 327 328 328 332 334 334 332 332 331
327 335 337 336 334 335 335 334 335 335 336 335 335 337 338 338 338 334 331 329 329 331 330 329 325 324 326 328 325 325 324 324 325 323 324 325 327 327 329 331 333 331 330
317 332 338 340 337 336 335 336 335 335 335 335 335 336 337 338 338 335 332 331 331 331 330 328 325 323 323 324 324 325 323 323 324 324 322 322 322 324 325 327 330 330 329
309 323 334 339 337 337 337 337 338 336 336 336 336 336 337 338 337 336 333 332 331 331 330 329 326 324 322 322 324 323 322 322 323 324 321 320 320 320 321 324 325 326 328
306 309 328 337 338 338 338 337 335 335 336 336 337 337 337 338 337 336 334 331 330 330 329 329 326 323 324 324 325 321 322 321 322 322 321 321 319 319 320 320 322 323 325
307 308 327 333 337 337 336 335 334 333 333 333 336 337 337 337 337 336 335 332 331 330 329 328 325 323 319 324 320 319 320 319 319 320 320 320 318 320 319 319 318 320 323
307 313 327 335 336 338 337 333 329 331 332 334 332 334 336 337 337 337 335 333 331 329 329 327 325 322 320 323 319 317 311 314 318 319 319 320 317 319 319 319 318 317 319
314 316 319 322 326 326 325 326 327 328 329 329 328 330 332 335 335 337 335 333 331 330 327 327 326 324 320 322 321 318 312 310 314 316 317 318 318 318 319 319 318 317 318
315 315 317 321 323 323 320 318 323 326 325 329 331 332 331 330 332 335 333 332 331 330 327 327 327 325 324 320 321 321 316 315 312 308 316 317 318 317 317 318 317 316 317
315 316 315 317 321 323 323 321 320 319 321 322 327 329 330 329 331 332 332 331 330 330 329 327 326 325 324 322 321 320 317 314 314 311 309 312 315 317 317 317 317 316 316
311 312 315 319 319 320 320 321 320 320 321 321 323 328 329 329 328 331 332 331 331 330 329 327 327 326 325 324 323 321 319 315 312 309 309 312 312 314 316 316 315 316 316